This is the latest recevied weather packets stored in our database for station/object DK9XR-14. If no packets are shown the sender has not sent any weather packets the latest 10 day(s).
| Time | Temp. | Humidity | Pressure | Rain* | Wind** | Luminosity | Snow |
|---|---|---|---|---|---|---|---|
| 1777984865 | 16.11° C | 74% | 1009.7 hPa | 0.25 mm | - | - | - |
| 1777984565 | 16.67° C | 73% | 1009.7 hPa | 0.25 mm | - | - | - |
| 1777984264 | 17.22° C | 72% | 1009.8 hPa | 0 mm | - | - | - |
| 1777983963 | 17.78° C | 66% | 1009.8 hPa | 0 mm | - | - | - |
| 1777983665 | 18.33° C | 60% | 1009.7 hPa | 0 mm | - | - | - |
| 1777983362 | 18.33° C | 58% | 1009.7 hPa | 0 mm | - | - | - |
| 1777983062 | 18.33° C | 58% | 1009.5 hPa | 0 mm | - | - | - |
| 1777982762 | 18.89° C | 59% | 1009.5 hPa | 0 mm | - | - | - |
| 1777982162 | 18.89° C | 57% | 1009.3 hPa | 0 mm | - | - | - |
| 1777981862 | 18.33° C | 60% | 1009.4 hPa | 0 mm | - | - | - |
| 1777981563 | 18.33° C | 63% | 1009.3 hPa | 0 mm | - | - | - |
| 1777981261 | 18.33° C | 62% | 1009.2 hPa | 0 mm | - | - | - |
| 1777980963 | 18.33° C | 64% | 1009.2 hPa | 0 mm | - | - | - |
| 1777980661 | 18.33° C | 65% | 1009.3 hPa | 0 mm | - | - | - |
| 1777980360 | 18.33° C | 65% | 1009.2 hPa | 0 mm | - | - | - |
| 1777980061 | 18.33° C | 65% | 1009.1 hPa | 0 mm | - | - | - |
| 1777979761 | 18.33° C | 67% | 1009.1 hPa | 0 mm | - | - | - |
| 1777979460 | 18.33° C | 67% | 1009 hPa | 0 mm | - | - | - |
| 1777979160 | 18.33° C | 66% | 1009.1 hPa | 0 mm | - | - | - |
| 1777978861 | 18.33° C | 65% | 1009 hPa | 0 mm | - | - | - |
| 1777978561 | 18.33° C | 65% | 1009 hPa | 0 mm | - | - | - |
| 1777978263 | 18.33° C | 63% | 1009 hPa | 0 mm | - | - | - |
| 1777977961 | 18.89° C | 61% | 1009.1 hPa | 0 mm | - | - | - |
| 1777977661 | 18.89° C | 59% | 1009.1 hPa | 0 mm | - | - | - |
| 1777977362 | 18.89° C | 60% | 1009.2 hPa | 0 mm | - | - | - |
* Rain latest hour (hover to see other rain measurements)
** Current wind speed in m/s (hover to see current wind gust speed)